Change the Weather History Date:

Wednesday, October 20, 2010

  Actual Average Record
Temperature  
Mean Temperature 44 °F 41 °F  
Max Temperature 59 °F 54 °F 78 °F (1901)
Min Temperature 29 °F 28 °F 12 °F (1896)
Degree Days  
Heating Degree Days 21 24  
Month to date heating degree days 247 389  
Since 1 July heating degree days 565 735  
Cooling Degree Days 0 0  
Month to date cooling degree days 0 0  
Year to date cooling degree days 388 455  
Moisture  
Dew Point 24 °F    
Average Humidity 44    
Maximum Humidity 70    
Minimum Humidity 18    
Precipitation  
Precipitation 0.00 in 0.03 in 0.47 in (1996)
Month to date precipitation 0.05 0.62  
Year to date precipitation 16.92 12.80  
Snow  
Snow 0.00 in 0.10 in 4.20 in (1996)
Month to date snowfall 0.0 1.3  
Since 1 July snowfall 0.0 1.5  
Since 1 September snowfall 0.0 1.5  
Snow Depth 0.00 in    
Sea Level Pressure  
Sea Level Pressure 30.00 in    
Wind  
Wind Speed 9 mph (NW)    
Max Wind Speed 20 mph    
Max Gust Speed 23 mph    
Visibility 10 miles    
Events      
T = Trace of Precipitation, MM = Missing Value Source: NWS Daily Summary

Daily Weather History Graph

Daily Weather History Graph

Search for Another Location

Airport or City:

Trip Planner

Search our weather history database for the weather conditions in past years. The results will help you decide how hot, cold, wet, or windy it might be!

Date:

Astronomy

Oct. 20, 2010 Rise Set
Actual Time 8:21 AM CDT 6:56 PM CDT
Civil Twilight 7:49 AM CDT 7:27 PM CDT
Nautical Twilight 7:13 AM CDT 8:04 PM CDT
Astronomical Twilight 6:37 AM CDT 8:40 PM CDT
Moon 5:35 PM CDT (10/20) 5:58 AM CDT (10/20)
Length of Visible Light 11h 38m
Length of Day
10h 34m
Waxing Gibbous, 95% of the Moon is Illuminated
Oct 20
Waxing Gibbous
Oct 22
Full
Oct 30
Last Quarter
Nov 5
New
Nov 13
First Quarter

Hourly Weather History & Observations

Time (CDT) Temp. Windchill Dew Point Humidity Pressure Visibility Wind Dir Wind Speed Gust Speed Precip Events Conditions
12:52 AM 45.0 °F 40.1 °F 30.9 °F 58% 29.89 in 10.0 mi West 9.2 mph - N/A   Clear
1:52 AM 48.0 °F - 32.0 °F 54% 29.87 in 10.0 mi West 13.8 mph - N/A   Clear
2:52 AM 46.4 °F 39.8 °F 32.0 °F 57% 29.85 in 10.0 mi West 16.1 mph - N/A   Clear
3:52 AM 45.0 °F 37.9 °F 32.0 °F 60% 29.88 in 10.0 mi West 16.1 mph - N/A   Clear
4:52 AM 44.1 °F 36.8 °F 30.9 °F 60% 29.88 in 10.0 mi West 16.1 mph - N/A   Clear
5:52 AM 44.1 °F 38.1 °F 30.9 °F 60% 29.90 in 10.0 mi WNW 11.5 mph - N/A   Clear
6:52 AM 42.1 °F 36.1 °F 30.9 °F 65% 29.94 in 10.0 mi WNW 10.4 mph - N/A   Clear
7:52 AM 39.9 °F - 30.9 °F 70% 29.97 in 10.0 mi Calm Calm - N/A   Clear
8:52 AM 39.0 °F - 30.9 °F 73% 30.01 in 10.0 mi Calm Calm - N/A   Scattered Clouds
9:52 AM 45.0 °F 42.6 °F 32.0 °F 60% 30.03 in 10.0 mi Variable 4.6 mph - N/A   Scattered Clouds
10:52 AM 51.1 °F - 27.0 °F 39% 30.03 in 10.0 mi NNW 16.1 mph - N/A   Clear
11:52 AM 52.0 °F - 21.0 °F 30% 30.05 in 10.0 mi North 11.5 mph - N/A   Clear
12:52 PM 54.0 °F - 19.0 °F 25% 30.05 in 10.0 mi NNW 11.5 mph - N/A   Clear
1:52 PM 57.0 °F - 17.1 °F 21% 30.05 in 10.0 mi NNW 15.0 mph - N/A   Clear
2:52 PM 57.9 °F - 17.1 °F 20% 30.04 in 10.0 mi WNW 12.7 mph 18.4 mph N/A   Clear
3:52 PM 59.0 °F - 16.0 °F 19% 30.04 in 10.0 mi NW 12.7 mph - N/A   Clear
4:52 PM 57.9 °F - 15.1 °F 19% 30.04 in 10.0 mi NW 15.0 mph - N/A   Clear
5:52 PM 57.0 °F - 17.1 °F 21% 30.04 in 10.0 mi NW 9.2 mph - N/A   Clear
6:52 PM 48.9 °F - 19.0 °F 31% 30.05 in 10.0 mi NNW 9.2 mph - N/A   Clear
7:52 PM 41.0 °F 37.1 °F 19.9 °F 43% 30.07 in 10.0 mi NNW 5.8 mph - N/A   Clear
8:52 PM 42.1 °F 40.2 °F 19.9 °F 41% 30.07 in 10.0 mi NE 3.5 mph - N/A   Clear
9:52 PM 37.9 °F - 19.9 °F 48% 30.08 in 10.0 mi Calm Calm - N/A   Clear
10:52 PM 34.0 °F 28.8 °F 21.0 °F 59% 30.09 in 10.0 mi NNE 5.8 mph - N/A   Clear
11:52 PM 33.1 °F - 19.9 °F 59% 30.09 in 10.0 mi Calm Calm - N/A   Clear